User: anonymous   Login
Location: Unspecified
(0.0000°N, 0.0000°E)
Time: 22:56:29
(UTC+00:00)
Language:

USA 200 - Orbit

View from above orbital plane
View from above orbital plane
View from above satellite
View from above satellite

Ground track
Ground track

The orbit data is extracted from the following two-line orbital elements,

1 32706U 08010A   15094.80542116 -.00000306  00000-0  00000-0 0    06
2 32706  63.1061  92.5680 7004266 268.1372  17.5890  2.00618941    02
Epoch (UTC): 04 April 2015 19:19:48
Eccentricity: 0.7004266
inclination: 63.1061°
perigee height: 1577 km
apogee height: 38777 km
right ascension of ascending node: 92.5680°
argument of perigee: 268.1372°
revolutions per day: 2.00618941
mean anomaly at epoch: 17.5890°
orbit number at epoch: 0

The dashed part of the orbit path shows where the satellite is in the earth's shadow,  

DLR